Simultaneous Nadir Overpasses (SNOs) Predictions

Prediction of SNOs between GOES-17 and TERRA Satellite Orbit:

Table of predicted SNOs for the next 14.0 days since TLE Epoch: 7/8/2023
Index Date Time (GOES-17) GOES-17 Lat,Lon TERRA Lat,Lon Distance(km) Time Diff (sec)
1 07/09/2023 16:59:44 -0.01,-104.74 -0.26,-103.48 143.08 80
2 07/10/2023 05:20:03 -0.00,-104.71 -0.79,-108.41 420.84 80
3 07/12/2023 05:00:59 -0.01,-104.72 0.04,-104.45 30.18 80
4 07/14/2023 04:44:35 -0.01,-104.72 0.88,-100.49 480.80 80
5 07/14/2023 17:04:45 0.01,-104.75 0.12,-105.40 73.30 80
6 07/16/2023 16:51:01 0.00,-104.76 -0.69,-101.43 377.68 80
7 07/17/2023 05:11:19 -0.00,-104.73 -0.34,-106.37 185.80 80
8 07/19/2023 04:52:14 -0.00,-104.74 0.49,-102.41 265.41 80
9 07/19/2023 17:12:24 0.00,-104.76 0.57,-107.30 289.14 80
10 07/21/2023 16:58:39 0.00,-104.78 -0.28,-103.34 162.79 80
